GW5761 Weather Reports


Display with metric or nautical units.
time (UTC)temp
F
wind
direction
speed
MPH
gust
MPH
rain 1hr
in
rain 24hr
in
rain mn
in
humidity
%
barometer
mb
20260506120414 73 241 0.0 3.0 0.00 0.00 0.00 84 1011.5
20260506115911 75 248 5.0 10.0 0.00 0.00 0.00 84 1011.2
20260506115409 75 15 1.0 4.0 0.00 0.00 0.00 88 1011.1
20260506114907 75 150 0.0 3.0 0.00 0.00 0.00 88 1010.9
20260506114404 75 286 2.0 5.0 0.00 0.00 0.00 88 1010.9
20260506113904 75 234 3.0 4.0 0.00 0.00 0.00 88 1010.9
20260506113401 75 233 2.0 4.0 0.00 0.00 0.00 88 1010.8
20260506112857 75 268 0.0 3.0 0.00 0.00 0.00 88 1010.8
20260506112354 75 240 3.0 5.0 0.00 0.00 0.00 88 1010.7
20260506111851 75 210 2.0 6.0 0.00 0.00 0.00 88 1010.8
20260506111350 75 143 2.0 3.0 0.00 0.00 0.00 88 1010.6
20260506110847 75 195 3.0 7.0 0.00 0.00 0.00 88 1010.5
20260506110344 75 212 5.0 6.0 0.00 0.00 0.00 88 1010.5
20260506105841 75 248 7.0 8.0 0.00 0.00 0.00 88 1010.3
20260506105337 75 225 5.0 9.0 0.00 0.00 0.00 88 1010.5
20260506104835 75 226 2.0 6.0 0.00 0.00 0.00 88 1010.4
20260506104332 75 194 2.0 6.0 0.00 0.00 0.00 88 1010.4
20260506103830 75 220 3.0 6.0 0.00 0.00 0.00 88 1010.4
20260506103327 75 165 3.0 6.0 0.00 0.00 0.00 87 1010.2
20260506102824 75 132 3.0 10.0 0.00 0.00 0.00 87 1010.2
20260506102322 75 222 4.0 5.0 0.00 0.00 0.00 87 1010.0
20260506101819 75 164 2.0 4.0 0.00 0.00 0.00 87 1010.0
20260506101315 75 194 2.0 8.0 0.00 0.00 0.00 87 1010.0
20260506100813 75 255 2.0 8.0 0.00 0.00 0.00 87 1009.8
20260506100311 76 205 3.0 12.0 0.00 0.00 0.00 87 1009.9
20260506095809 76 208 6.0 11.0 0.00 0.00 0.00 87 1009.9
20260506095306 76 214 4.0 8.0 0.00 0.00 0.00 87 1009.8
20260506094803 76 217 3.0 9.0 0.00 0.00 0.00 87 1009.9
20260506094302 75 213 3.0 7.0 0.00 0.00 0.00 87 1009.9
20260506093759 75 196 2.0 9.0 0.00 0.00 0.00 87 1009.7
20260506093256 75 242 8.0 9.0 0.00 0.00 0.00 87 1009.6
20260506092754 75 268 2.0 6.0 0.00 0.00 0.00 88 1009.6
20260506092252 75 275 4.0 7.0 0.00 0.00 0.00 88 1009.5
20260506091749 75 170 2.0 7.0 0.00 0.00 0.00 88 1009.4
20260506091246 75 213 2.0 8.0 0.00 0.00 0.00 88 1009.5
20260506090744 75 170 3.0 6.0 0.00 0.00 0.00 88 1009.5
20260506090241 75 190 4.0 7.0 0.00 0.00 0.00 88 1009.3
20260506085737 75 239 6.0 12.0 0.00 0.00 0.00 88 1009.4
20260506085234 75 221 6.0 8.0 0.00 0.00 0.00 88 1009.5
20260506084730 75 234 3.0 14.0 0.00 0.00 0.00 88 1009.6
20260506084226 75 246 5.0 6.0 0.00 0.00 0.00 88 1009.8
20260506083724 75 189 3.0 8.0 0.00 0.00 0.00 88 1009.6
20260506083221 75 310 0.0 7.0 0.00 0.00 0.00 89 1009.7
20260506082719 75 233 5.0 7.0 0.00 0.00 0.00 89 1009.5
20260506082214 75 193 4.0 10.0 0.00 0.00 0.00 89 1009.3
20260506081712 75 203 1.0 10.0 0.00 0.00 0.00 89 1009.3
20260506081209 75 227 2.0 9.0 0.00 0.00 0.00 89 1009.4
20260506080707 75 131 2.0 8.0 0.00 0.00 0.00 89 1009.3
20260506080203 75 242 4.0 6.0 0.00 0.00 0.00 89 1009.7
20260506073147 75 160 3.0 7.0 0.00 0.00 0.00 89 1009.5
20260506072644 75 192 2.0 8.0 0.00 0.00 0.00 89 1009.6
20260506072142 75 163 6.0 8.0 0.00 0.00 0.00 89 1009.2
20260506071639 75 164 3.0 8.0 0.00 0.00 0.00 89 1009.2
20260506071137 75 158 5.0 7.0 0.00 0.00 0.00 89 1009.6
20260506070633 75 172 5.0 12.0 0.00 0.00 0.00 89 1009.5
20260506070130 75 178 3.0 8.0 0.00 0.00 0.00 88 1009.3
20260506062108 76 235 7.0 10.0 0.00 0.00 0.00 88 1010.3
20260506061603 76 196 4.0 6.0 0.00 0.00 0.00 88 1010.4
20260506061102 76 180 2.0 7.0 0.00 0.00 0.00 88 1010.2
20260506060600 76 159 2.0 9.0 0.00 0.00 0.00 88 1010.1
20260506051028 76 155 2.0 6.0 0.00 0.00 0.00 88 1009.6
20260506050526 76 133 3.0 11.0 0.00 0.00 0.00 88 1009.5
20260506045017 76 224 9.0 9.0 0.00 0.00 0.00 88 1009.5
20260506044515 76 152 2.0 8.0 0.00 0.00 0.00 88 1009.4
20260506044011 76 190 0.0 6.0 0.00 0.00 0.00 88 1009.2
20260506043508 76 221 4.0 10.0 0.00 0.00 0.00 88 1009.2
20260506043007 76 197 3.0 6.0 0.00 0.00 0.00 87 1008.9
20260506042506 76 205 6.0 12.0 0.00 0.00 0.00 87 1009.1
20260506042003 76 165 3.0 6.0 0.00 0.00 0.00 87 1008.8
20260506041501 76 180 4.0 11.0 0.00 0.00 0.00 87 1008.7
20260506040958 76 173 5.0 11.0 0.00 0.00 0.00 87 1008.7
20260506040456 76 139 7.0 11.0 0.00 0.00 0.00 86 1008.8
20260506035951 77 136 6.0 10.0 0.00 0.00 0.00 86 1008.7
20260506035449 77 141 6.0 12.0 0.00 0.00 0.00 85 1008.5
20260506034945 77 229 7.0 11.0 0.00 0.00 0.00 85 1008.6
20260506034443 77 218 3.0 8.0 0.00 0.00 0.00 85 1008.6
20260506033939 77 162 7.0 9.0 0.00 0.00 0.00 84 1008.7
20260506033437 77 200 4.0 10.0 0.00 0.00 0.00 84 1008.7
20260506032934 77 204 6.0 11.0 0.00 0.00 0.00 83 1008.5
20260506032431 77 179 4.0 10.0 0.00 0.00 0.00 83 1008.7
20260506031927 77 161 4.0 9.0 0.00 0.00 0.00 82 1008.7
20260506031425 78 172 5.0 11.0 0.00 0.00 0.00 82 1008.8
20260506030922 78 150 2.0 7.0 0.00 0.00 0.00 82 1008.5
20260506030420 78 145 5.0 9.0 0.00 0.00 0.00 81 1008.1
20260506025917 78 199 2.0 10.0 0.00 0.00 0.00 81 1008.1
20260506025414 78 158 5.0 9.0 0.00 0.00 0.00 81 1008.3
20260506024910 78 167 4.0 7.0 0.00 0.00 0.00 80 1008.4
20260506024408 78 166 5.0 6.0 0.00 0.00 0.00 80 1008.6
20260506023904 78 150 4.0 5.0 0.00 0.00 0.00 80 1008.6
20260506023401 78 161 2.0 6.0 0.00 0.00 0.00 80 1008.6
20260506022857 78 174 2.0 6.0 0.00 0.00 0.00 80 1008.6
20260506022355 78 187 2.0 5.0 0.00 0.00 0.00 79 1008.4
20260506021853 78 194 4.0 6.0 0.00 0.00 0.00 79 1008.4
20260506021349 78 158 4.0 5.0 0.00 0.00 0.00 79 1008.3
20260506020846 78 172 3.0 6.0 0.00 0.00 0.00 79 1008.3
20260506020344 78 155 4.0 6.0 0.00 0.00 0.00 79 1008.2
20260506015841 78 211 0.0 4.0 0.00 0.00 0.00 79 1008.0
20260506015339 78 198 3.0 4.0 0.00 0.00 0.00 79 1007.9
20260506014835 79 172 0.0 4.0 0.00 0.00 0.00 78 1007.8
20260506014332 79 174 2.0 5.0 0.00 0.00 0.00 78 1007.7
20260506013829 79 172 2.0 4.0 0.00 0.00 0.00 77 1008.1
20260506013326 79 202 2.0 3.0 0.00 0.00 0.00 77 1007.8
20260506012822 79 161 5.0 6.0 0.00 0.00 0.00 77 1007.6
20260506012320 80 135 4.0 5.0 0.00 0.00 0.00 76 1007.6
20260506011817 80 193 2.0 6.0 0.00 0.00 0.00 76 1007.8
20260506011313 80 174 1.0 4.0 0.00 0.00 0.00 75 1008.0
20260506010811 80 225 2.0 6.0 0.00 0.00 0.00 75 1007.5
20260506010309 80 200 2.0 9.0 0.00 0.00 0.00 75 1007.2
20260506005806 80 192 4.0 6.0 0.00 0.00 0.00 74 1007.2
20260506005305 81 182 3.0 5.0 0.00 0.00 0.00 74 1007.2
20260506004758 81 134 2.0 8.0 0.00 0.00 0.00 73 1007.0
20260506004256 81 236 5.0 7.0 0.00 0.00 0.00 73 1007.0
20260506003752 82 153 3.0 5.0 0.00 0.00 0.00 72 1006.6
20260506003248 82 179 2.0 6.0 0.00 0.00 0.00 71 1006.8
20260506002744 82 183 3.0 7.0 0.00 0.00 0.00 71 1006.7
20260506002241 82 162 2.0 8.0 0.00 0.00 0.00 70 1006.6
20260506001737 83 150 3.0 6.0 0.00 0.00 0.00 69 1006.8
20260506001235 83 199 2.0 5.0 0.00 0.00 0.00 69 1007.1
20260506000731 83 247 3.0 6.0 0.00 0.00 0.00 68 1006.7
20260506000229 84 199 5.0 6.0 0.00 0.00 0.00 67 1006.6
20260505235726 84 174 2.0 6.0 0.00 0.00 0.00 67 1006.8
20260505235224 84 218 6.0 8.0 0.00 0.00 0.00 67 1006.8
20260505234720 84 176 3.0 9.0 0.00 0.00 0.00 65 1007.0
20260505234217 84 204 3.0 7.0 0.00 0.00 0.00 66 1006.8
20260505233714 85 245 8.0 8.0 0.00 0.00 0.00 65 1006.9
20260505233212 85 240 3.0 6.0 0.00 0.00 0.00 66 1006.6
20260505232709 84 97 1.0 6.0 0.00 0.00 0.00 66 1006.9
20260505232206 85 230 6.0 9.0 0.00 0.00 0.00 65 1006.7
20260505231703 85 263 1.0 6.0 0.00 0.00 0.00 65 1006.8
20260505231202 85 180 4.0 8.0 0.00 0.00 0.00 65 1006.7
20260505230700 86 234 7.0 9.0 0.00 0.00 0.00 63 1006.6
20260505230156 86 169 5.0 7.0 0.00 0.00 0.00 62 1006.6
20260505225652 86 230 8.0 8.0 0.00 0.00 0.00 63 1006.7
20260505225149 86 232 6.0 11.0 0.00 0.00 0.00 63 1006.4
20260505224645 86 231 3.0 11.0 0.00 0.00 0.00 62 1006.4
20260505224143 86 156 5.0 13.0 0.00 0.00 0.00 62 1006.5
20260505223640 86 180 5.0 12.0 0.00 0.00 0.00 62 1006.5
20260505223136 86 265 9.0 12.0 0.00 0.00 0.00 62 1006.5
20260505222632 85 235 4.0 9.0 0.00 0.00 0.00 63 1006.5
20260505222128 86 221 5.0 9.0 0.00 0.00 0.00 62 1006.5
20260505221626 86 214 3.0 15.0 0.00 0.00 0.00 62 1006.6
20260505221122 86 190 9.0 10.0 0.00 0.00 0.00 61 1006.5
20260505220620 86 232 6.0 8.0 0.00 0.00 0.00 61 1006.6
20260505220117 85 254 3.0 9.0 0.00 0.00 0.00 63 1006.9
20260505215615 85 229 10.0 12.0 0.00 0.00 0.00 63 1006.8
20260505215113 85 244 3.0 13.0 0.00 0.00 0.00 63 1006.8
20260505214611 86 237 9.0 15.0 0.00 0.00 0.00 62 1006.8
20260505214107 86 238 11.0 15.0 0.00 0.00 0.00 61 1007.1
20260505213605 86 246 7.0 17.0 0.00 0.00 0.00 61 1006.9
20260505213102 86 234 5.0 13.0 0.00 0.00 0.00 62 1007.0
20260505212557 86 224 13.0 14.0 0.00 0.00 0.00 61 1007.0
20260505212055 86 237 4.0 13.0 0.00 0.00 0.00 62 1006.9
20260505211552 86 246 4.0 17.0 0.00 0.00 0.00 63 1007.0
20260505211048 85 197 5.0 15.0 0.00 0.00 0.00 64 1007.0
20260505210545 84 215 5.0 14.0 0.00 0.00 0.00 65 1006.9
20260505210043 85 206 4.0 12.0 0.00 0.00 0.00 64 1007.1
20260505205541 84 255 6.0 15.0 0.00 0.00 0.00 65 1007.1
20260505205038 84 210 4.0 13.0 0.00 0.00 0.00 65 1007.2
20260505204535 84 225 6.0 11.0 0.00 0.00 0.00 66 1007.5
20260505204032 84 233 10.0 13.0 0.00 0.00 0.00 66 1007.7
20260505203529 84 214 8.0 16.0 0.00 0.00 0.00 65 1007.6
20260505203026 83 227 4.0 7.0 0.00 0.00 0.00 67 1007.7
20260505202522 83 152 5.0 12.0 0.00 0.00 0.00 67 1007.6
20260505202018 84 221 8.0 11.0 0.00 0.00 0.00 66 1007.6
20260505201515 83 240 7.0 12.0 0.00 0.00 0.00 67 1007.6
20260505201013 83 249 7.0 14.0 0.00 0.00 0.00 67 1007.7
20260505200510 82 254 7.0 14.0 0.00 0.00 0.00 67 1007.6
20260505200007 83 231 8.0 17.0 0.00 0.00 0.00 67 1007.9
20260505195503 83 204 8.0 13.0 0.00 0.00 0.00 66 1007.8
20260505195000 82 227 7.0 10.0 0.00 0.00 0.00 68 1007.7
20260505194458 83 171 8.0 11.0 0.00 0.00 0.00 66 1007.6
20260505193958 83 254 6.0 13.0 0.00 0.00 0.00 67 1007.8
20260505193456 84 188 4.0 15.0 0.00 0.00 0.00 65 1007.7
20260505192952 83 144 7.0 11.0 0.00 0.00 0.00 65 1007.9
20260505192451 83 237 7.0 16.0 0.00 0.00 0.00 65 1007.9
20260505191948 83 259 10.0 20.0 0.00 0.00 0.00 65 1007.9
20260505191447 84 237 3.0 12.0 0.00 0.00 0.00 65 1008.1
20260505190943 82 191 13.0 20.0 0.00 0.00 0.00 66 1008.0
20260505190438 82 246 9.0 11.0 0.00 0.00 0.00 67 1007.8
20260505185934 82 238 7.0 16.0 0.00 0.00 0.00 68 1008.1
20260505185432 82 225 7.0 13.0 0.00 0.00 0.00 67 1008.2
20260505184928 82 240 11.0 22.0 0.00 0.00 0.00 68 1008.4
20260505184425 82 196 6.0 13.0 0.00 0.00 0.00 68 1008.4
20260505183922 82 254 6.0 20.0 0.00 0.00 0.00 67 1008.2
20260505183419 82 219 12.0 17.0 0.00 0.00 0.00 68 1008.3
20260505182915 82 233 9.0 17.0 0.00 0.00 0.00 66 1008.2
20260505182412 82 238 10.0 14.0 0.00 0.00 0.00 66 1008.4
20260505181908 82 223 9.0 22.0 0.00 0.00 0.00 67 1008.5
20260505181406 81 252 7.0 12.0 0.00 0.00 0.00 67 1008.2
20260505180903 81 232 9.0 19.0 0.00 0.00 0.00 68 1008.4
20260505180359 82 221 17.0 20.0 0.00 0.00 0.00 67 1008.1
20260505175856 81 206 14.0 17.0 0.00 0.00 0.00 68 1008.3
20260505175352 81 245 15.0 20.0 0.00 0.00 0.00 68 1008.3
20260505174848 80 200 4.0 12.0 0.00 0.00 0.00 70 1008.3
20260505174346 80 206 6.0 19.0 0.00 0.00 0.00 70 1008.3
20260505173842 80 239 10.0 16.0 0.00 0.00 0.00 69 1008.5
20260505173339 80 233 6.0 13.0 0.00 0.00 0.00 70 1008.5
20260505172836 80 232 3.0 14.0 0.00 0.00 0.00 70 1008.5
20260505172333 79 212 5.0 12.0 0.00 0.00 0.00 72 1008.5
20260505171833 79 213 5.0 18.0 0.00 0.00 0.00 72 1008.3
20260505171330 79 180 7.0 12.0 0.00 0.00 0.00 73 1008.4
20260505170827 78 196 2.0 14.0 0.00 0.00 0.00 74 1008.8
20260505170323 78 159 7.0 14.0 0.00 0.00 0.00 75 1008.7
20260505165819 78 236 5.0 9.0 0.00 0.00 0.00 75 1008.9
20260505165315 77 206 9.0 18.0 0.00 0.00 0.00 75 1009.1
20260505164810 77 180 4.0 12.0 0.00 0.00 0.00 76 1008.7
20260505164308 77 242 6.0 15.0 0.00 0.00 0.00 77 1008.9
20260505163806 76 196 5.0 12.0 0.00 0.00 0.00 78 1008.8
20260505163304 75 174 7.0 20.0 0.00 0.00 0.00 79 1008.9
20260505162802 75 203 4.0 22.0 0.00 0.00 0.00 80 1009.0
20260505162258 75 214 9.0 15.0 0.00 0.00 0.00 80 1009.1
20260505161755 74 155 6.0 11.0 0.00 0.00 0.00 81 1009.2
20260505161252 74 215 6.0 17.0 0.00 0.00 0.00 82 1009.3
20260505160750 74 150 4.0 10.0 0.00 0.00 0.00 82 1009.3
20260505160248 73 219 4.0 14.0 0.00 0.00 0.00 82 1009.1
20260505153227 73 167 5.0 10.0 0.00 0.00 0.00 82 1009.2
20260505152724 73 210 5.0 12.0 0.00 0.00 0.00 81 1009.0
20260505152220 73 217 3.0 11.0 0.00 0.00 0.00 82 1009.1
20260505151714 73 204 4.0 12.0 0.00 0.00 0.00 81 1009.1
20260505151212 73 243 8.0 9.0 0.00 0.00 0.00 81 1009.0
20260505150708 73 204 7.0 12.0 0.00 0.00 0.00 81 1009.0
20260505150206 73 130 8.0 14.0 0.00 0.00 0.00 83 1008.9
20260505140639 71 156 11.0 17.0 0.00 0.00 0.00 83 1008.7
20260505140136 71 133 6.0 10.0 0.00 0.00 0.00 84 1008.7
20260505124549 70 164 2.0 16.0 0.00 0.00 0.00 84 1008.7
20260505124045 70 219 7.0 12.0 0.00 0.00 0.00 84 1008.5
20260505123542 70 231 9.0 11.0 0.00 0.00 0.00 84 1008.4
20260505123038 70 224 6.0 12.0 0.00 0.00 0.00 84 1008.7
20260505122535 70 256 4.0 12.0 0.00 0.00 0.00 85 1008.7
20260505122032 70 231 6.0 13.0 0.00 0.00 0.00 85 1008.5
20260505121528 70 196 4.0 13.0 0.00 0.00 0.00 85 1008.4
20260505121025 69 193 6.0 6.0 0.00 0.00 0.00 85 1008.4
20260505120522 69 179 5.0 9.0 0.00 0.00 0.00 85 1008.6